Weather History for KPEX - June, 2013

Change the Weather History Date:

Friday, June 7, 2013

  Actual Average (KLJF) Record (KLJF)
Temperature  
Mean Temperature 56 °F -  
Max Temperature 62 °F 79 °F 96 °F (2011)
Min Temperature 51 °F 55 °F 41 °F (1949)
Degree Days  
Heating Degree Days 8    
Growing Degree Days 6 (Base 50)    
Moisture  
Dew Point 49 °F    
Average Humidity 77    
Maximum Humidity 94    
Minimum Humidity 57    
Precipitation  
Precipitation 0.00 in - - ()
Sea Level Pressure  
Sea Level Pressure 30.01 in    
Wind  
Wind Speed 1 mph (ESE)    
Max Wind Speed 7 mph    
Max Gust Speed -    
Visibility 10 miles    
Events      
Averages and records for this station are not official NWS values.
T = Trace of Precipitation, MM = Missing Value Source: NWS Daily Summary

Daily Weather History Graph

Daily Weather History Graph

Search for Another Location

Airport or City:

Trip Planner

Search our weather history database for the weather conditions in past years. The results will help you decide how hot, cold, wet, or windy it might be!

Date:

Astronomy

Jun. 07, 2013 Rise Set
Actual Time 5:31 AM CDT 9:04 PM CDT
Civil Twilight 4:54 AM CDT 9:42 PM CDT
Nautical Twilight 4:04 AM CDT 10:31 PM CDT
Astronomical Twilight 2:59 AM CDT 11:36 PM CDT
Moon 4:58 AM CDT (6/7) 8:16 PM CDT (6/7)
Length of Visible Light 16h 48m
Length of Day
15h 33m
Waning Crescent, 1% of the Moon is Illuminated
Jun 7
Waning Crescent
Jun 8
New
Jun 16
First Quarter
Jun 23
Full
Jun 29
Last Quarter

Hourly Weather History & Observations

Time (CDT) Temp. Dew Point Humidity Pressure Visibility Wind Dir Wind Speed Gust Speed Precip Events Conditions
12:13 AM 52.7 °F 49.1 °F 88% 30.06 in 10.0 mi Calm Calm - N/A   Overcast
12:33 AM 52.7 °F 49.1 °F 88% 30.06 in 10.0 mi Calm Calm - N/A   Overcast
12:53 AM 52.7 °F 49.1 °F 88% 30.05 in 10.0 mi Calm Calm - N/A   Overcast
1:13 AM 52.7 °F 49.1 °F 88% 30.05 in 10.0 mi Calm Calm - N/A   Overcast
1:32 AM 52.3 °F 49.1 °F 89% 30.05 in 10.0 mi Calm Calm - N/A   Overcast
1:53 AM 52.3 °F 48.9 °F 88% 30.04 in 10.0 mi Calm Calm - N/A   Overcast
2:13 AM 52.2 °F 49.1 °F 89% 30.04 in 10.0 mi Calm Calm - N/A   Overcast
2:33 AM 52.2 °F 49.1 °F 89% 30.04 in 10.0 mi Calm Calm - N/A   Overcast
2:53 AM 52.0 °F 49.3 °F 90% 30.04 in 10.0 mi Calm Calm - N/A   Overcast
3:13 AM 51.8 °F 49.3 °F 91% 30.04 in 10.0 mi Calm Calm - N/A   Overcast
3:33 AM 51.8 °F 49.1 °F 90% 30.04 in 10.0 mi Calm Calm - N/A   Overcast
3:53 AM 51.8 °F 49.6 °F 92% 30.03 in 10.0 mi Calm Calm - N/A   Overcast
4:13 AM 51.4 °F 49.6 °F 94% 30.03 in 10.0 mi Calm Calm - N/A   Overcast
4:33 AM 51.8 °F 49.5 °F 92% 30.03 in 10.0 mi Calm Calm - N/A   Overcast
4:53 AM 51.4 °F 49.5 °F 93% 30.03 in 10.0 mi Calm Calm - N/A   Overcast
5:13 AM 51.4 °F 49.6 °F 94% 30.03 in 10.0 mi Calm Calm - N/A   Overcast
5:33 AM 51.8 °F 49.5 °F 92% 30.04 in 10.0 mi Calm Calm - N/A   Overcast
5:53 AM 51.6 °F 49.8 °F 94% 30.04 in 7.0 mi Calm Calm - N/A   Overcast
6:13 AM 51.8 °F 50.2 °F 94% 30.05 in 7.0 mi Calm Calm - N/A   Overcast
6:33 AM 52.0 °F 50.0 °F 93% 30.05 in 7.0 mi Calm Calm - N/A   Overcast
6:53 AM 52.2 °F 50.2 °F 93% 30.06 in 10.0 mi Calm Calm - N/A   Overcast
7:13 AM 52.3 °F 49.5 °F 90% 30.06 in 10.0 mi Calm Calm - N/A   Overcast
7:33 AM 52.7 °F 49.6 °F 89% 30.06 in 10.0 mi Calm Calm - N/A   Overcast
7:53 AM 52.7 °F 48.7 °F 86% 30.06 in 10.0 mi Calm Calm - N/A   Overcast
8:13 AM 52.7 °F 49.1 °F 88% 30.06 in 10.0 mi Calm Calm - N/A   Overcast
8:33 AM 52.7 °F 49.1 °F 88% 30.07 in 10.0 mi Calm Calm - N/A   Overcast
8:53 AM 53.1 °F 49.1 °F 86% 30.06 in 10.0 mi Calm Calm - N/A   Overcast
9:13 AM 54.1 °F 49.3 °F 84% 30.06 in 10.0 mi Calm Calm - N/A   Overcast
9:33 AM 54.7 °F 49.3 °F 82% 30.06 in 10.0 mi Calm Calm - N/A   Overcast
9:53 AM 55.4 °F 49.1 °F 79% 30.06 in 10.0 mi Calm Calm - N/A   Overcast
10:13 AM 55.8 °F 49.1 °F 78% 30.06 in 10.0 mi Calm Calm - N/A   Overcast
10:33 AM 56.5 °F 48.4 °F 74% 30.05 in 10.0 mi North 3.5 mph - N/A   Overcast
10:53 AM 57.2 °F 48.9 °F 74% 30.05 in 10.0 mi NNE 3.5 mph - N/A   Overcast
11:13 AM 57.2 °F 48.4 °F 72% 30.04 in 10.0 mi Calm Calm - N/A   Overcast
11:33 AM 57.4 °F 48.9 °F 73% 30.04 in 10.0 mi Calm Calm - N/A   Overcast
11:53 AM 57.6 °F 49.3 °F 74% 30.04 in 10.0 mi North 3.5 mph - N/A   Overcast
12:13 PM 57.4 °F 48.7 °F 73% 30.04 in 10.0 mi Calm Calm - N/A   Overcast
12:33 PM 57.6 °F 47.8 °F 70% 30.03 in 10.0 mi Calm Calm - N/A   Overcast
12:53 PM 58.1 °F 47.5 °F 68% 30.03 in 10.0 mi Calm Calm - N/A   Overcast
1:13 PM 58.5 °F 47.3 °F 66% 30.03 in 10.0 mi Calm Calm - N/A   Overcast
1:33 PM 58.5 °F 48.2 °F 69% 30.02 in 10.0 mi Calm Calm - N/A   Overcast
1:53 PM 59.0 °F 48.4 °F 68% 30.02 in 10.0 mi ESE 3.5 mph - N/A   Overcast
2:13 PM 59.0 °F 47.7 °F 66% 30.02 in 10.0 mi Calm Calm - N/A   Overcast
2:33 PM 59.4 °F 48.2 °F 67% 30.01 in 10.0 mi Calm Calm - N/A   Overcast
2:53 PM 60.1 °F 47.5 °F 63% 30.00 in 10.0 mi Calm Calm - N/A   Overcast
3:13 PM 61.0 °F 48.4 °F 63% 30.00 in 10.0 mi SSE 3.5 mph - N/A   Overcast
3:33 PM 61.2 °F 47.7 °F 61% 29.99 in 10.0 mi Calm Calm - N/A   Overcast
3:53 PM 61.3 °F 47.8 °F 61% 29.99 in 10.0 mi Calm Calm - N/A   Overcast
4:12 PM 61.7 °F 48.0 °F 61% 29.98 in 10.0 mi Calm Calm - N/A   Overcast
4:33 PM 61.9 °F 47.7 °F 60% 29.97 in 10.0 mi Calm Calm - N/A   Overcast
4:53 PM 62.4 °F 48.2 °F 60% 29.97 in 10.0 mi Calm Calm - N/A   Overcast
5:12 PM 61.9 °F 48.0 °F 60% 29.97 in 10.0 mi SSE 4.6 mph - N/A   Overcast
5:33 PM 61.7 °F 47.8 °F 60% 29.96 in 10.0 mi SSE 3.5 mph - N/A   Overcast
5:53 PM 61.3 °F 47.3 °F 60% 29.96 in 10.0 mi Calm Calm - N/A   Overcast
6:12 PM 61.9 °F 47.5 °F 59% 29.96 in 10.0 mi Calm Calm - N/A   Overcast
6:33 PM 62.1 °F 46.6 °F 57% 29.95 in 10.0 mi Calm Calm - N/A   Overcast
6:52 PM 61.9 °F 46.9 °F 58% 29.95 in 10.0 mi Calm Calm - N/A   Overcast
7:13 PM 61.9 °F 47.7 °F 60% 29.95 in 10.0 mi SE 3.5 mph - N/A   Overcast
7:32 PM 61.7 °F 50.0 °F 65% 29.94 in 10.0 mi East 5.8 mph - N/A   Overcast
7:53 PM 61.5 °F 49.6 °F 65% 29.94 in 10.0 mi ESE 6.9 mph - N/A   Overcast
8:13 PM 60.8 °F 50.0 °F 68% 29.94 in 10.0 mi ESE 5.8 mph - N/A   Scattered Clouds
8:32 PM 59.7 °F 49.6 °F 69% 29.94 in 10.0 mi ESE 4.6 mph - N/A   Clear
8:53 PM 58.1 °F 49.5 °F 73% 29.94 in 10.0 mi ESE 4.6 mph - N/A   Clear
9:13 PM 57.4 °F 49.1 °F 74% 29.94 in 10.0 mi ESE 3.5 mph - N/A   Clear
9:33 PM 56.7 °F 49.1 °F 76% 29.94 in 10.0 mi SE 3.5 mph - N/A   Clear
9:53 PM 56.3 °F 49.1 °F 77% 29.94 in 10.0 mi Calm Calm - N/A   Clear
10:13 PM 55.8 °F 49.1 °F 78% 29.94 in 10.0 mi East 3.5 mph - N/A   Clear
10:33 PM 55.4 °F 49.3 °F 80% 29.94 in 10.0 mi Calm Calm - N/A   Clear
10:52 PM 55.0 °F 50.2 °F 84% 29.94 in 10.0 mi Calm Calm - N/A   Clear
11:13 PM 55.4 °F 50.2 °F 83% 29.93 in 10.0 mi Calm Calm - N/A   Clear
11:33 PM 55.6 °F 50.2 °F 82% 29.93 in 10.0 mi Calm Calm - N/A   Clear
11:52 PM 55.4 °F 50.2 °F 83% 29.93 in 10.0 mi Calm Calm - N/A   Clear